GFSSE_850_thetae_171.txt.gz
Theta_e
346 344 339 337 331 330 330 331 338 336 337 336 337 340 340 341 342 337 337 341 334 342 341 343 343 340 335 333 335 337 338 334 333 335 334 335 334 334 336 343 345 345 336
347 346 342 341 337 332 333 334 335 333 336 337 338 337 337 341 335 330 331 332 347 336 334 334 336 342 339 333 333 336 339 334 333 339 344 341 336 335 334 343 337 339 339
348 346 345 343 340 340 340 335 332 332 333 335 335 338 340 342 341 343 335 328 339 340 340 333 328 328 332 333 331 330 330 331 341 342 344 348 338 328 331 334 336 337 337
347 346 344 342 342 342 341 333 333 338 340 339 342 339 343 343 329 331 329 325 325 326 325 328 331 336 337 338 339 337 334 334 341 342 344 345 345 330 329 327 329 330 331
346 345 345 344 343 338 333 339 344 342 342 337 331 329 331 324 337 334 325 341 337 329 331 339 342 340 339 339 340 341 341 340 345 345 341 342 348 329 330 332 333 328 341
347 346 341 337 335 337 339 340 339 338 342 332 324 329 328 340 335 332 329 336 338 340 342 343 343 342 339 339 341 341 343 342 347 345 344 338 343 329 328 329 328 327 326
347 344 339 339 339 339 338 338 339 340 332 325 329 342 342 343 338 339 329 337 339 338 339 338 336 338 339 339 341 341 345 346 347 345 345 341 326 327 331 326 327 331 329
340 338 344 341 340 340 340 339 338 336 327 325 329 343 335 327 333 331 328 330 335 337 338 338 338 339 340 340 341 341 342 347 350 346 345 346 338 328 325 332 328 327 328
338 340 342 340 340 340 339 338 338 338 336 331 324 328 327 328 331 332 331 330 328 328 327 330 334 335 340 341 341 342 344 348 347 350 348 350 343 339 334 327 324 326 327
338 338 340 344 346 343 345 338 334 335 334 328 325 326 330 331 334 336 340 333 334 333 331 330 328 330 336 340 341 343 347 348 349 350 351 347 343 343 340 339 337 330 324
334 333 337 343 342 344 334 331 331 331 331 329 329 338 345 346 344 346 331 328 328 331 332 331 334 335 339 347 343 343 347 348 346 348 349 345 344 344 344 343 341 340 339
333 337 339 335 342 348 345 343 347 351 352 350 351 352 350 349 346 348 341 336 339 334 342 334 334 341 344 348 349 344 348 342 343 342 347 342 342 345 343 343 344 344 342
335 337 334 338 347 346 346 349 348 349 349 348 347 347 345 351 347 351 350 351 352 348 352 349 350 349 347 347 345 344 345 344 341 341 344 343 341 341 343 342 341 341 342
342 341 340 345 345 345 344 348 348 348 349 352 347 343 349 352 350 345 348 348 348 350 345 351 350 349 349 349 349 348 348 347 347 345 347 346 345 336 336 337 339 340 339
343 342 341 345 344 340 345 349 348 346 349 349 352 348 352 349 343 349 351 349 347 348 349 348 348 350 349 349 348 348 345 346 347 347 348 349 350 347 342 341 342 342 341
344 345 344 345 333 338 346 342 347 345 346 348 350 349 345 349 346 346 348 352 351 349 347 347 349 348 349 347 346 346 347 346 346 348 349 350 350 348 341 344 344 343 342
344 344 343 343 343 344 343 338 346 344 345 346 347 347 345 349 350 350 352 351 350 349 350 350 349 350 349 346 347 347 347 347 344 344 347 349 348 346 339 337 325 323 326
345 344 344 341 342 344 341 343 346 344 345 345 345 345 347 350 351 352 351 352 353 348 342 350 348 348 348 346 343 340 340 340 340 344 339 342 339 337 340 340 334 325 328
344 345 344 343 342 342 342 345 345 344 343 344 342 342 344 351 352 348 351 352 351 348 347 351 349 348 346 344 339 338 340 340 343 338 340 342 341 340 340 340 336 332 333
347 344 346 345 345 344 344 341 343 343 343 342 342 342 345 350 350 351 350 352 346 349 351 351 347 346 345 344 339 339 339 338 340 342 339 340 340 341 341 340 338 337 334
348 345 345 346 346 346 346 344 342 342 341 342 342 342 345 351 352 352 352 349 349 347 348 350 349 350 346 342 340 338 340 343 342 342 340 340 341 341 342 341 340 339 338
349 348 345 345 340 341 345 343 343 343 343 343 344 345 343 352 354 354 354 353 350 346 340 337 341 348 343 344 343 341 341 341 341 342 340 340 339 340 341 341 340 339 338
350 351 351 350 345 337 340 344 345 342 343 343 343 345 346 351 352 351 353 353 349 342 344 342 341 347 342 341 344 348 345 343 343 340 340 340 340 342 342 342 340 337 336
348 350 352 353 352 350 343 346 346 346 346 344 344 344 350 353 354 354 354 354 355 351 348 348 348 344 350 348 346 345 348 347 345 345 344 342 343 342 341 342 340 337 334
347 348 350 351 352 349 349 344 348 347 346 344 344 345 352 349 348 352 355 353 349 352 353 351 346 352 352 350 348 347 345 345 345 344 343 342 341 342 342 343 340 338 335
345 347 348 350 341 341 350 344 340 345 347 345 345 348 350 351 351 351 355 353 349 346 348 349 351 349 347 346 344 348 346 344 344 342 342 342 343 343 342 341 341 337 332

GFSSE_850_thetae_174.txt.gz
Theta_e
343 341 335 334 332 333 336 337 337 336 336 340 340 340 341 339 339 339 336 338 338 338 340 335 333 331 332 334 334 333 333 334 334 334 335 333 333 338 338 342 345 341 339
342 340 337 330 330 330 338 335 341 341 340 341 340 342 338 332 328 329 338 339 339 338 339 339 340 339 333 333 334 332 331 338 343 344 340 334 332 332 337 341 334 336 339
344 342 341 333 331 334 336 333 334 338 342 337 338 338 339 342 341 328 340 342 339 334 330 329 329 330 330 331 329 328 339 342 343 345 347 345 326 329 333 336 335 338 334
345 344 343 340 340 338 333 332 335 340 337 341 338 344 340 327 330 326 326 328 329 326 326 332 336 336 337 335 332 329 337 340 343 342 345 346 337 328 327 327 329 327 327
345 343 342 342 342 336 334 339 343 341 338 338 336 338 325 341 329 326 340 334 326 329 341 341 337 338 339 340 340 333 344 344 345 343 342 348 347 327 327 328 327 334 339
344 344 344 343 336 339 342 343 339 341 333 326 323 325 336 337 326 336 339 334 338 339 342 342 341 338 340 341 341 341 343 346 344 343 342 340 329 326 326 326 327 326 326
348 343 338 336 338 340 340 339 342 339 328 339 345 342 346 342 340 329 337 339 339 340 337 337 338 338 339 340 340 342 344 349 349 347 342 341 325 325 327 325 328 328 327
342 339 339 339 338 338 339 339 341 331 326 330 339 338 328 332 331 328 331 335 337 338 338 337 338 338 338 339 339 341 345 346 341 348 344 342 338 328 323 325 326 326 327
339 345 343 340 341 340 338 339 334 330 325 324 330 327 328 331 333 332 330 330 328 327 327 332 334 338 337 340 341 343 348 345 346 350 348 346 343 338 334 326 323 324 326
344 344 341 340 340 340 336 337 337 337 332 327 325 330 331 336 338 336 337 332 333 331 328 328 328 333 338 340 339 342 348 348 347 351 341 347 342 343 340 339 337 330 324
340 341 343 341 340 343 329 327 329 334 330 331 344 346 347 348 348 347 331 328 326 329 332 330 336 337 344 347 347 343 347 347 347 350 348 344 341 343 343 343 342 340 339
336 340 343 340 339 339 336 340 347 350 349 350 351 348 350 349 346 349 349 349 349 348 351 346 344 342 348 347 347 347 346 342 342 349 348 345 343 339 343 342 344 344 344
333 334 332 340 348 348 348 346 347 351 352 343 343 347 347 350 350 349 347 348 346 348 350 352 344 346 350 349 347 347 345 343 347 349 345 344 344 341 335 341 341 341 341
337 339 334 346 347 345 349 348 348 348 345 339 339 346 350 347 351 346 350 349 350 347 345 349 348 347 350 350 342 348 348 347 345 348 347 348 348 348 341 338 339 340 339
338 341 339 346 345 345 346 337 341 347 350 351 350 347 349 344 343 346 344 347 349 348 349 348 347 348 347 348 347 345 344 344 346 347 350 348 350 348 344 342 342 341 341
344 342 343 343 343 338 343 344 347 347 347 349 351 347 348 348 350 344 349 345 351 350 345 343 344 346 349 346 346 347 347 347 347 345 348 349 349 346 341 331 324 322 322
344 343 343 345 337 336 344 339 347 345 346 348 348 348 346 346 352 351 350 351 352 352 349 348 350 348 346 347 346 342 343 346 346 345 346 348 345 345 341 338 334 332 324
345 344 346 345 337 334 335 336 345 346 347 347 346 344 344 348 352 344 353 343 348 348 345 345 349 348 347 345 342 339 340 339 341 339 341 340 340 338 340 342 340 338 333
344 344 344 344 343 345 337 342 343 345 341 345 344 343 344 345 354 345 347 351 348 344 344 349 350 350 346 345 341 339 338 340 339 342 338 340 341 340 341 343 340 338 337
345 345 345 344 343 343 343 340 343 345 345 344 343 343 343 340 349 354 348 353 349 347 348 350 350 344 341 344 341 340 341 340 340 340 340 341 342 341 341 342 341 339 339
346 345 345 345 344 344 343 344 344 343 343 342 343 343 344 343 354 352 351 350 350 346 349 340 349 342 345 346 341 339 339 340 341 341 341 341 337 342 341 343 341 340 341
347 347 345 346 346 345 344 345 345 344 344 344 344 344 343 342 349 353 352 347 353 343 346 336 328 340 348 344 344 344 345 343 343 343 342 340 342 340 339 341 341 342 342
349 349 347 344 344 343 342 345 345 343 343 343 341 342 345 347 352 350 352 351 348 346 344 347 343 336 339 337 343 347 346 345 344 343 340 340 342 340 343 342 343 342 341
350 350 350 348 342 338 338 341 348 346 346 346 346 345 346 352 352 352 351 351 351 347 350 349 350 350 348 345 346 349 350 348 340 339 343 343 342 341 342 343 341 341 341
350 351 352 352 349 345 341 338 339 347 347 346 345 344 345 347 347 352 351 351 346 344 347 346 346 345 344 343 343 342 341 340 342 344 344 342 342 343 344 345 343 343 342
348 349 351 351 348 345 346 341 341 344 349 347 346 345 346 350 352 348 354 336 346 349 346 347 346 345 344 344 342 341 342 343 341 343 343 342 341 341 340 340 339 337 340

GFSSE_850_thetae_180.txt.gz
Theta_e
342 338 338 343 337 336 336 336 336 337 337 334 332 330 330 329 330 333 338 338 335 333 331 331 331 331 333 337 340 338 335 333 334 333 338 338 338 338 338 337 333 334 336
337 341 337 341 339 335 335 337 337 335 335 333 330 325 327 327 334 335 337 335 334 332 331 331 334 334 332 332 333 333 335 335 334 333 333 335 338 339 341 344 338 337 337
333 336 333 341 333 339 338 334 336 337 336 335 342 339 326 340 339 333 333 332 332 333 330 329 331 332 330 331 333 340 342 341 336 339 332 333 333 338 341 341 334 336 336
332 330 331 335 332 332 334 340 338 339 340 341 327 329 328 328 339 338 339 327 326 328 329 327 327 326 328 339 341 341 343 343 344 342 343 340 329 329 334 334 335 336 331
335 333 338 337 332 336 340 338 340 339 342 331 327 336 324 324 324 325 325 325 330 333 333 332 332 330 327 336 339 343 343 341 339 342 342 341 328 326 327 327 327 326 327
339 339 340 335 335 340 340 337 333 329 325 324 344 329 326 342 339 325 326 335 340 338 336 335 337 338 335 341 344 343 341 342 343 341 341 340 325 326 326 327 326 333 331
339 340 341 336 340 339 338 339 326 340 333 340 341 340 328 329 335 336 337 340 340 339 338 335 337 339 341 342 341 344 345 345 342 340 340 340 330 326 325 327 326 325 325
340 342 337 339 339 338 339 334 325 335 334 333 327 329 327 326 330 332 332 333 334 335 335 335 335 338 338 339 343 343 345 345 341 342 343 340 340 329 325 326 326 327 326
342 340 339 340 339 338 336 327 324 323 327 326 331 334 337 334 332 331 331 330 328 327 330 334 336 336 339 340 341 342 345 343 338 344 342 342 342 338 334 326 324 326 327
339 340 340 340 339 336 335 331 328 323 328 330 340 344 346 345 339 331 326 328 331 330 329 328 332 337 339 340 341 342 345 345 344 344 342 343 343 342 341 338 336 326 324
343 341 340 338 334 327 327 326 326 334 340 341 342 345 348 347 346 347 344 346 343 346 343 334 335 333 340 346 346 347 347 344 345 346 347 346 343 343 342 340 341 339 337
341 339 338 333 327 339 339 337 340 340 343 342 345 347 346 343 346 346 346 344 349 350 348 345 343 337 341 342 345 345 345 345 344 345 343 343 343 343 342 342 340 341 342
340 340 338 333 338 345 346 346 345 343 340 342 338 347 348 347 346 342 345 340 345 347 345 344 345 340 339 342 344 344 343 344 344 337 335 343 345 343 342 340 341 339 337
342 339 345 345 343 344 344 344 343 339 340 343 346 346 346 345 345 343 346 344 346 343 344 346 345 340 344 345 345 341 343 344 341 343 339 339 345 346 346 342 339 338 338
339 340 347 346 345 345 345 343 340 343 344 347 345 344 340 340 344 344 345 343 344 346 345 345 344 344 346 345 344 342 345 344 342 344 343 342 343 339 344 334 341 341 337
334 337 343 346 345 343 343 342 346 347 349 347 346 344 345 344 345 343 346 346 336 345 347 346 347 346 347 346 345 345 342 343 343 344 344 344 346 347 345 338 330 331 334
333 336 341 343 343 341 343 344 346 345 346 344 346 345 346 344 344 344 343 345 346 347 345 345 348 348 346 345 343 341 339 340 339 341 339 342 343 344 342 341 339 338 339
334 334 336 337 342 340 340 342 345 344 345 346 346 345 343 345 344 342 343 348 346 347 344 342 343 345 345 341 339 339 339 339 340 339 338 335 337 338 339 337 338 340 340
339 341 338 338 341 342 334 339 341 341 343 346 345 343 342 344 342 340 346 349 348 349 347 345 345 345 338 333 339 343 339 340 340 340 339 339 338 339 340 341 340 340 340
339 343 341 342 344 339 334 335 338 338 339 342 342 342 343 344 343 344 344 346 342 341 344 345 339 341 341 339 344 343 342 343 342 342 340 341 341 341 341 340 341 343 343
343 343 342 343 344 342 340 333 333 335 337 340 342 342 343 344 343 347 343 343 340 343 341 333 340 341 330 338 346 342 341 344 339 340 343 341 340 340 341 341 342 341 342
344 344 344 344 345 343 342 337 335 334 335 340 342 343 345 344 343 348 346 348 344 341 343 336 339 342 340 340 341 338 339 338 338 338 338 339 339 339 339 339 339 340 342
345 345 344 344 344 344 342 340 340 338 337 338 341 342 342 346 345 348 349 348 344 344 342 342 343 343 341 341 342 343 343 341 339 338 339 339 339 340 340 342 340 340 340
343 342 343 343 344 344 344 342 339 339 337 335 337 338 342 346 347 346 348 349 335 339 342 344 344 342 343 343 342 342 341 340 343 342 338 338 337 337 338 338 339 339 337
345 345 344 345 345 345 345 342 339 340 338 337 338 341 345 345 344 346 350 350 348 346 341 340 343 346 343 344 344 344 344 344 341 338 336 334 332 333 333 332 330 328 333
347 347 344 344 344 346 346 344 339 338 338 338 338 339 342 343 344 349 350 350 347 346 344 347 348 348 347 346 345 343 340 338 335 333 336 335 332 330 328 324 329 331 331

GFSSE_850_thetae_183.txt.gz
Theta_e
345 344 337 340 334 335 336 337 337 335 334 333 332 333 334 335 335 338 338 338 335 332 333 337 334 334 334 339 339 338 333 333 335 337 338 338 338 338 337 334 334 336 338
340 343 339 336 335 336 337 337 336 335 333 331 335 332 331 332 334 345 333 331 330 330 331 332 331 331 333 336 334 333 334 334 333 332 336 338 338 338 338 340 338 336 337
337 342 341 337 336 336 337 337 336 333 340 337 327 327 337 337 338 341 332 331 330 329 329 331 332 332 332 333 334 339 341 334 340 333 330 332 333 337 340 343 338 335 336
337 339 338 336 337 337 338 335 337 340 338 329 328 328 343 336 339 332 326 326 326 326 327 330 332 330 332 336 341 341 342 338 342 340 339 335 329 330 336 338 335 336 335
334 332 338 331 334 338 339 337 336 341 324 332 325 324 324 325 325 325 324 328 330 330 330 330 329 328 338 340 340 342 341 340 340 341 341 337 327 326 326 327 328 330 328
337 341 338 334 339 338 335 333 327 323 327 339 324 329 338 328 324 325 333 338 333 331 334 335 337 334 332 337 342 342 341 343 344 340 341 340 327 326 326 327 326 329 333
342 341 335 340 339 338 333 324 330 327 338 338 333 326 331 333 334 335 337 340 340 338 333 337 339 340 338 341 343 343 345 345 345 339 340 340 336 326 326 326 326 325 327
343 341 338 339 336 338 329 326 336 334 333 329 329 327 328 334 333 331 334 334 336 335 336 334 337 339 340 341 341 342 343 344 343 343 341 341 340 331 327 326 325 326 325
342 339 339 337 337 336 327 325 331 330 326 329 332 332 332 331 330 331 331 330 328 327 330 334 335 337 338 339 340 342 343 343 340 341 343 342 341 340 331 328 325 325 325
341 339 338 337 335 331 331 324 324 326 329 334 341 340 341 335 331 327 327 330 332 330 329 328 330 333 335 336 338 343 345 345 345 344 344 342 343 344 339 335 331 326 324
339 337 338 334 333 333 328 325 325 328 332 341 345 346 346 345 346 346 345 346 346 347 345 340 340 339 337 339 344 345 344 342 336 343 345 339 344 344 343 340 339 337 335
338 338 337 330 327 326 326 331 339 344 343 344 346 345 342 346 346 343 342 342 346 346 345 342 342 340 338 339 341 344 342 342 343 342 340 337 340 343 343 342 340 341 341
340 339 332 327 335 333 340 341 341 340 340 341 343 346 343 345 345 343 344 340 344 343 342 344 344 342 341 340 343 342 341 342 341 341 337 335 342 344 344 342 340 340 340
340 338 329 335 344 345 345 345 342 341 343 344 342 342 342 343 344 344 345 344 345 344 342 343 344 343 342 345 343 342 344 342 340 342 341 339 341 344 346 345 341 340 339
341 338 335 336 341 344 341 342 341 344 346 344 345 344 344 345 345 343 344 345 340 341 344 345 344 345 344 342 343 344 343 341 343 343 343 343 344 344 342 341 331 336 334
340 342 343 339 344 344 344 341 345 344 345 346 345 344 345 344 342 343 343 344 346 345 343 346 344 344 346 346 345 343 341 341 340 343 341 343 344 345 345 343 338 333 333
337 342 343 343 344 341 342 345 345 346 346 345 345 343 343 344 342 341 343 347 344 346 343 343 344 346 347 345 344 343 340 339 339 339 337 338 340 343 344 343 342 341 338
334 335 340 343 342 341 343 345 345 344 343 343 343 343 342 343 342 342 343 345 347 343 347 346 344 346 345 343 339 339 339 339 339 340 340 339 338 340 338 340 342 343 341
333 332 338 340 339 340 340 341 344 342 341 343 341 343 342 343 343 343 344 346 346 340 341 342 339 343 343 334 334 339 341 340 341 342 341 340 339 339 339 340 341 340 341
338 333 334 335 337 341 340 336 339 339 339 341 341 342 342 342 343 343 347 345 344 343 342 334 336 333 330 336 340 341 341 341 342 341 340 342 341 341 340 340 340 341 341
339 336 337 338 338 342 340 334 335 334 335 337 340 342 342 344 344 343 348 348 346 343 345 340 339 341 337 336 336 333 332 333 336 337 339 337 337 339 339 339 339 337 339
341 339 338 339 341 342 337 334 333 332 335 336 339 340 342 344 342 343 345 349 347 342 340 342 342 341 341 341 341 341 341 339 339 339 338 339 338 338 336 338 340 340 340
343 341 341 340 343 342 341 341 339 334 333 334 335 338 342 342 347 347 347 349 346 339 342 343 344 344 343 342 342 343 343 341 342 342 341 340 335 333 332 333 334 334 330
345 342 341 341 341 342 342 342 340 337 334 334 335 336 338 339 346 344 346 348 350 349 347 343 340 342 345 344 343 344 345 344 342 341 336 332 329 327 329 329 327 327 330
345 344 343 343 341 342 341 342 342 341 338 337 336 336 337 343 345 344 345 350 350 350 347 345 346 347 347 347 346 345 343 339 336 335 333 331 325 325 324 324 324 329 328
345 344 341 341 342 343 342 343 343 342 339 338 338 338 339 342 343 345 349 350 348 347 347 345 347 345 346 345 344 341 338 336 335 333 331 330 328 317 321 326 324 321 322

GFSSE_850_thetae_186.txt.gz
Theta_e
340 337 340 336 342 345 337 336 335 334 335 336 337 337 337 342 341 339 344 338 335 337 341 338 336 337 336 337 339 335 332 333 336 337 337 338 338 337 335 334 335 335 335
340 339 339 340 343 340 341 336 334 332 334 333 331 331 332 339 344 337 332 330 331 335 331 330 331 332 334 334 333 333 333 333 331 334 337 338 338 338 338 339 339 337 336
342 339 336 338 338 339 335 335 331 331 326 327 331 339 339 334 335 333 333 340 330 331 331 332 332 332 332 332 336 340 337 339 338 333 330 331 334 338 340 341 339 335 335
341 341 337 339 334 335 334 334 338 338 336 326 341 339 332 329 327 327 328 326 326 328 331 332 331 331 333 338 341 341 340 338 342 340 339 335 329 330 337 339 336 336 338
340 336 335 334 337 335 335 336 338 323 326 325 326 329 327 328 325 324 327 329 330 331 330 329 329 334 339 340 340 341 340 340 339 339 340 338 332 327 328 330 329 332 333
336 338 333 336 337 336 335 334 328 331 330 324 334 333 324 324 324 331 337 332 332 335 335 336 333 330 337 337 341 341 342 343 343 342 340 341 336 327 327 328 330 328 330
341 338 336 339 335 330 325 322 323 337 331 325 332 335 331 332 332 336 339 339 338 334 336 338 339 336 336 340 341 342 342 343 344 342 340 340 340 335 327 326 328 328 330
339 335 339 337 337 328 332 336 339 338 333 330 327 331 334 333 333 334 334 334 334 334 333 336 338 339 340 340 341 342 343 344 341 340 342 340 340 340 332 327 326 327 328
339 336 338 336 338 331 327 335 334 328 328 328 328 328 328 329 330 330 330 327 326 328 332 334 335 336 337 338 339 340 344 345 342 341 341 340 340 342 340 334 329 325 326
338 338 337 338 337 326 324 331 338 328 332 335 335 335 332 331 328 329 330 333 334 332 330 330 332 333 335 335 338 344 341 335 341 336 340 341 343 342 341 341 338 334 329
338 339 338 336 333 332 324 324 327 332 339 344 345 344 344 345 345 346 345 346 346 347 345 344 343 340 338 339 340 342 339 342 340 342 340 339 338 337 342 342 341 339 338
338 338 336 333 331 328 325 326 334 338 339 345 344 342 346 344 343 344 343 343 343 343 344 343 342 340 339 338 341 342 341 341 341 343 336 338 337 337 343 343 342 340 340
338 338 332 327 327 328 336 341 342 339 343 342 346 342 342 342 343 343 344 343 345 343 344 341 344 344 339 339 343 341 342 342 341 340 341 339 339 343 344 344 344 342 339
339 336 328 330 332 343 343 343 341 340 340 343 340 341 344 345 346 345 345 345 342 343 344 343 343 344 343 343 341 343 343 343 342 341 342 341 341 342 343 343 343 341 340
338 335 328 343 344 344 343 342 341 343 342 344 344 344 344 343 343 345 344 344 345 343 344 345 345 345 344 343 341 342 343 341 340 340 342 344 343 344 345 343 341 336 335
339 332 333 340 343 342 340 340 343 344 344 344 344 344 344 344 342 343 343 345 343 344 342 343 343 344 346 344 344 342 340 339 338 338 338 338 342 342 343 344 346 344 339
338 336 336 337 343 342 341 340 343 345 344 344 344 343 342 342 342 343 344 345 346 341 345 341 339 343 343 343 340 339 339 339 338 339 339 339 337 337 340 341 340 340 342
339 338 340 341 343 341 340 345 345 344 343 343 342 342 341 342 342 343 345 346 345 342 342 343 341 342 340 336 335 338 339 341 339 339 340 340 339 339 339 340 339 340 342
338 336 337 340 342 340 341 344 345 343 342 342 341 341 341 341 343 343 347 345 345 343 342 334 335 336 334 332 331 333 341 342 341 342 341 338 341 341 341 340 340 340 340
336 334 333 338 339 340 339 339 342 343 341 340 340 341 341 342 343 343 344 349 346 344 344 341 335 339 340 339 334 334 334 335 335 336 337 339 337 337 338 338 339 339 339
338 333 332 334 336 338 339 336 336 337 338 336 338 340 341 343 343 343 344 346 347 343 340 340 340 341 341 342 341 340 339 339 339 338 339 340 340 339 338 336 334 335 337
343 342 334 335 334 335 340 336 334 334 333 334 335 338 340 341 342 346 347 346 348 342 345 343 345 342 342 344 343 342 342 342 340 342 340 339 338 333 329 329 330 329 329
344 342 337 337 337 335 339 335 334 334 332 333 334 335 338 341 340 347 346 347 349 348 348 345 342 340 344 345 344 344 344 343 343 342 338 333 330 328 324 322 322 323 325
343 342 340 339 337 336 341 337 338 337 335 334 333 334 335 337 337 345 344 345 349 350 350 347 346 346 346 345 346 346 344 342 339 336 331 328 326 320 316 317 325 324 323
344 344 342 339 338 337 341 339 339 339 338 337 337 337 337 337 341 345 345 347 350 349 347 347 345 346 346 345 344 343 339 336 334 334 331 321 317 316 315 321 322 322 320
344 344 343 340 338 339 339 339 339 339 339 340 340 339 338 338 340 343 344 345 348 347 346 346 346 347 346 343 339 335 332 331 331 330 329 325 319 309 311 314 318 319 324